Tracking 26218 objects as of 27-Sep-2022
HD Live streaming from Space Station
objects crossing your sky now

BREEZE-M DEB (TANK)

Track BREEZE-M DEB (TANK) now!
10-day predictions


NORAD ID: 40386
Int'l Code: 2015-005C
Perigee: 381.5 km
Apogee: 14,735.1 km
Inclination: 50.7 °
Period: 272.7 minutes
Semi major axis: 13929 km
RCS: Unknown
Launch date: February 1, 2015
Source: Commonwealth of Independent States (former USSR) (CIS)
Launch site: TYURATAM MISSILE AND SPACE COMPLEX (TTMTR)

Note: This is SATELLITE DEBRIS
aabbcc
Your satellite tracking list
Your tracking list is empty




NASA's NSSDC Master Catalog

Two Line Element Set (TLE):
1 40386U 15005C   22269.41614317  .00000456  00000-0  29931-3 0  9992
2 40386  50.7414   8.9102 5152309  50.0169 344.9746  5.28090125147168
Source of the keplerian elements: AFSPC